Location: Central Falls
(41.8900°N, 71.3929°W)
Time: 14:10:42
(UTC+00:00)

Vanguard 1 - Pass Details

Date: 10 December 2023
Orbit: 653 x 3826 km, 34.3° (Epoch: 24 February)

Event Time Altitude Azimuth Distance (km) Brightness Sun altitude
Rises 22:52:55 0° 255° (WSW) 5,292 15.6 -17.7°
Reaches altitude 10° 22:55:47 10° 253° (WSW) 4,625 14.8 -18.2°
Maximum altitude 23:09:55 67° 174° (S) 3,264 12.6 -20.7°
Enters shadow 23:25:44 24° 102° (ESE) 5,656 13.3 -23.6°
Drops below altitude 10° 23:32:26 10° 99° (E) 6,926 - -24.9°
Sets 23:37:57 0° 97° (E) 7,946 - -25.9°
